Regional Weather Roundup
Issued by NWS

Home | Current Version | Previous Version | Text Only | Print | Product List | Glossary On
Versions: 1 2 3 4 5 6 7 8 9 10 11 12 13 14 15 16 17 18 19 20 21 22 23 24 25 26 27 28 29 30 31 32 33 34 35 36 37 38 39 40 41 42 43 44 45 46 47 48 49 50
000
ASUS44 KOUN 190310
RWROK

WEATHER ROUNDUP FOR OKLAHOMA
NATIONAL WEATHER SERVICE NORMAN OK
900 PM CST WED JAN 18 2017

NOTE: "FAIR" INDICATES FEW OR NO CLOUDS BELOW 12,000 FEET WITH NO
      SIGNIFICANT WEATHER AND/OR OBSTRUCTIONS TO VISIBILITY.

OKZ001>007-009>012-014-015-017-190400-
NORTHWEST OKLAHOMA AND THE PANHANDLE

CITY           SKY/WX    TMP DP  RH WIND       PRES   REMARKS
GAGE           CLOUDY    47  44  90 S21       29.85F
GUYMON         CLEAR     43  38  82 S9        29.77F
ENID/WOODRING  PTCLDY    43  41  93 S5        29.92S
$$

OKZ016-021>023-033>039-044-045-190400-
SOUTHWEST OKLAHOMA

CITY           SKY/WX    TMP DP  RH WIND       PRES   REMARKS
LAWTON/REGL    CLOUDY    48  45  89 SE7       29.95F
LAWTON/FT SILL CLOUDY    48  48 100 SE7       29.93F
FREDERICK      FOG       42  41  96 SE7       29.92S VSB 1
CLINTON        FOG       46  44  93 S15       29.92F VSB 1/2
HOBART         FOG       47  46  97 S15       29.93F VSB 1/2
ALTUS AFB      PTCLDY    41  39  93 SE7       29.92F FOG
$$

OKZ018>020-024>031-190400-
CENTRAL OKLAHOMA

CITY           SKY/WX    TMP DP  RH WIND       PRES   REMARKS
OKLAHOMA CITY  PTCLDY    42  40  92 S8        29.94F
OKC/WILEY POST CLEAR     44  42  93 S8        29.94F
OKC/TINKER AFB PTCLDY    45  42  90 S7        29.93F
STILLWATER     CLOUDY    50  41  71 SE7       29.94F
GUTHRIE        MOCLDY    50  42  74 S5        29.93F
$$

OKZ008-013-054>072-190400-
NORTHEAST OKLAHOMA

CITY           SKY/WX    TMP DP  RH WIND       PRES   REMARKS
TULSA          CLOUDY    48  46  93 S10       29.97F
TULSA/JONES    CLOUDY    47  44  90 SE7       29.98F
PONCA CITY     CLOUDY    50  39  66 SE10      29.93F
BARTLESVILLE   CLOUDY    47  43  86 S7        29.98F
MUSKOGEE       CLOUDY    45  45 100 SE7       29.99F
$$

OKZ032-040>043-046>053-073>077-190400-
SOUTH CENTRAL/SOUTHEAST OKLAHOMA

CITY           SKY/WX    TMP DP  RH WIND       PRES   REMARKS
ARDMORE/DWNTWN CLOUDY    46  45  93 CALM      29.98F
MCALESTER      CLOUDY    48  45  89 CALM      29.98F
$$




USA.gov is the U.S. government's official web portal to all federal, state and local government web resources and services.